Location: Robledo de Chavela
(40.5014°N, 4.2377°W)
Time: 09:03:59
(UTC+00:00)

USA 229 DEB - Pass Details

Date: 18 April 2024
Orbit: 892 x 1319 km, 63.4° (Epoch: 18 May)

Event Time Altitude Azimuth Distance (km) Brightness Sun altitude
Rises 19:49:52 0° 178° (S) 3,502 6.2 -9.8°
Reaches altitude 10° 19:52:39 10° 167° (SSE) 2,591 5.4 -10.3°
Maximum altitude 19:57:36 27° 110° (ESE) 1,716 4.2 -11.1°
Drops below altitude 10° 20:02:53 10° 55° (NE) 2,773 5.6 -12.0°
Sets 20:05:57 0° 44° (NE) 3,796 6.4 -12.6°
